TimeEDT,TemperatureF,Dew PointF,Humidity,Sea Level PressureIn,VisibilityMPH,Wind Direction,Wind SpeedMPH,Gust SpeedMPH,PrecipitationIn,Events,Conditions,WindDirDegrees,DateUTC
12:15 AM,55.8,53.6,92,29.59,10.0,SW,4.6,-,N/A,,Overcast,230,2013-10-07 04:15:00
12:36 AM,55.4,53.2,92,29.58,10.0,SSW,4.6,-,N/A,,Overcast,210,2013-10-07 04:36:00
12:55 AM,54.9,52.7,92,29.58,10.0,SW,4.6,-,N/A,,Scattered Clouds,220,2013-10-07 04:55:00
1:15 AM,54.5,52.7,94,29.56,10.0,SW,3.5,-,N/A,,Scattered Clouds,230,2013-10-07 05:15:00
1:36 AM,54.3,52.2,92,29.55,10.0,SW,4.6,-,N/A,,Scattered Clouds,220,2013-10-07 05:36:00
1:55 AM,54.0,52.2,94,29.55,10.0,SW,5.8,-,N/A,,Clear,220,2013-10-07 05:55:00
2:15 AM,53.8,52.0,94,29.54,10.0,SW,5.8,-,N/A,,Clear,220,2013-10-07 06:15:00
2:36 AM,53.8,51.8,93,29.54,10.0,SW,4.6,-,N/A,,Clear,220,2013-10-07 06:36:00
2:55 AM,53.6,51.6,93,29.53,10.0,Calm,Calm,-,N/A,,Clear,0,2013-10-07 06:55:00
3:15 AM,53.6,51.3,92,29.52,10.0,Calm,Calm,-,N/A,,Clear,0,2013-10-07 07:15:00
3:35 AM,54.0,52.0,93,29.52,10.0,Calm,Calm,-,N/A,,Mostly Cloudy,0,2013-10-07 07:35:00
3:55 AM,54.0,52.0,93,29.51,10.0,WSW,3.5,-,N/A,,Overcast,240,2013-10-07 07:55:00
4:15 AM,54.5,52.2,92,29.50,10.0,West,4.6,-,N/A,,Overcast,260,2013-10-07 08:15:00
4:35 AM,54.7,52.7,93,29.50,10.0,West,4.6,-,N/A,,Overcast,280,2013-10-07 08:35:00
4:55 AM,54.5,53.1,95,29.52,7.0,WNW,5.8,-,N/A,,Light Drizzle,290,2013-10-07 08:55:00
5:16 AM,54.0,52.2,94,29.51,10.0,NW,4.6,-,N/A,,Overcast,310,2013-10-07 09:16:00
5:35 AM,53.6,51.8,94,29.52,10.0,NW,3.5,-,N/A,,Overcast,310,2013-10-07 09:35:00
5:55 AM,53.2,50.9,92,29.52,10.0,NW,5.8,-,N/A,,Overcast,310,2013-10-07 09:55:00
6:16 AM,53.2,51.3,93,29.52,10.0,West,6.9,-,N/A,Rain,Light Rain,280,2013-10-07 10:16:00
6:35 AM,52.7,50.7,93,29.53,10.0,WNW,5.8,-,N/A,Rain,Rain,300,2013-10-07 10:35:00
6:55 AM,52.5,50.7,94,29.53,10.0,West,4.6,-,N/A,,Overcast,280,2013-10-07 10:55:00
7:16 AM,52.0,50.0,93,29.53,10.0,WNW,8.1,-,N/A,,Overcast,300,2013-10-07 11:16:00
7:35 AM,51.3,49.5,94,29.54,4.0,WNW,8.1,-,N/A,Rain,Light Rain,290,2013-10-07 11:35:00
7:55 AM,50.9,49.1,94,29.54,4.0,West,6.9,-,N/A,Rain,Rain,270,2013-10-07 11:55:00
8:16 AM,50.4,49.1,95,29.54,7.0,West,6.9,-,N/A,Rain,Rain,260,2013-10-07 12:16:00
8:35 AM,50.4,48.6,94,29.55,10.0,West,6.9,-,N/A,,Overcast,270,2013-10-07 12:35:00
8:55 AM,50.2,48.2,93,29.55,10.0,West,5.8,-,N/A,,Overcast,270,2013-10-07 12:55:00
9:15 AM,49.8,47.5,92,29.55,7.0,West,6.9,-,N/A,Rain,Light Rain,280,2013-10-07 13:15:00
9:35 AM,49.1,47.1,93,29.56,5.0,West,9.2,23.0,N/A,Rain,Light Rain,280,2013-10-07 13:35:00
9:55 AM,48.6,47.1,95,29.56,2.5,West,10.4,20.7,N/A,Rain,Rain,280,2013-10-07 13:55:00
10:15 AM,48.4,46.9,95,29.57,7.0,West,10.4,16.1,N/A,Rain,Light Rain,270,2013-10-07 14:15:00
10:35 AM,48.6,47.3,95,29.57,3.0,West,10.4,23.0,N/A,,Overcast,280,2013-10-07 14:35:00
10:55 AM,48.7,47.3,95,29.57,10.0,WNW,13.8,20.7,N/A,,Overcast,300,2013-10-07 14:55:00
11:15 AM,49.1,46.6,91,29.58,10.0,WNW,10.4,23.0,N/A,,Overcast,300,2013-10-07 15:15:00
11:35 AM,49.5,46.2,89,29.59,10.0,NW,10.4,20.7,N/A,,Overcast,310,2013-10-07 15:35:00
11:55 AM,50.0,45.3,84,29.61,10.0,NW,12.7,25.3,N/A,,Overcast,310,2013-10-07 15:55:00
12:16 PM,51.8,45.5,79,29.62,10.0,NW,12.7,24.2,N/A,,Mostly Cloudy,310,2013-10-07 16:16:00
12:35 PM,51.8,43.5,73,29.64,10.0,NW,10.4,24.2,N/A,,Mostly Cloudy,310,2013-10-07 16:35:00
12:55 PM,52.0,43.2,72,29.65,10.0,NW,9.2,23.0,N/A,,Overcast,310,2013-10-07 16:55:00
1:16 PM,51.8,42.1,69,29.66,10.0,NW,10.4,24.2,N/A,,Overcast,310,2013-10-07 17:16:00
1:35 PM,51.8,41.7,68,29.67,10.0,NW,9.2,19.6,N/A,,Overcast,310,2013-10-07 17:35:00
1:55 PM,53.2,43.0,68,29.67,10.0,WNW,9.2,23.0,N/A,,Mostly Cloudy,300,2013-10-07 17:55:00
2:16 PM,52.7,42.1,67,29.68,10.0,WNW,11.5,25.3,N/A,,Mostly Cloudy,300,2013-10-07 18:16:00
2:35 PM,52.3,41.5,67,29.69,10.0,NW,12.7,21.9,N/A,,Overcast,320,2013-10-07 18:35:00
2:55 PM,51.6,41.2,68,29.70,10.0,WNW,10.4,19.6,N/A,,Overcast,300,2013-10-07 18:55:00
3:15 PM,51.8,41.5,68,29.71,10.0,WNW,5.8,18.4,N/A,,Overcast,300,2013-10-07 19:15:00
3:35 PM,52.7,42.1,67,29.73,10.0,WNW,11.5,21.9,N/A,,Overcast,300,2013-10-07 19:35:00
3:55 PM,52.0,42.1,69,29.74,10.0,WNW,10.4,18.4,N/A,,Overcast,300,2013-10-07 19:55:00
4:15 PM,51.8,42.4,70,29.75,10.0,NW,10.4,16.1,N/A,,Overcast,310,2013-10-07 20:15:00
4:35 PM,51.6,42.3,70,29.76,10.0,NW,10.4,19.6,N/A,,Overcast,310,2013-10-07 20:35:00
4:56 PM,50.9,43.5,76,29.78,10.0,WNW,10.4,18.4,N/A,,Overcast,300,2013-10-07 20:56:00
5:15 PM,51.4,43.7,75,29.79,10.0,WNW,6.9,16.1,N/A,,Overcast,290,2013-10-07 21:15:00
5:35 PM,51.3,43.5,75,29.80,10.0,WNW,8.1,16.1,N/A,,Mostly Cloudy,290,2013-10-07 21:35:00
5:56 PM,50.9,44.2,78,29.82,7.0,NW,4.6,-,N/A,Rain,Rain,320,2013-10-07 21:56:00
6:15 PM,49.3,45.9,88,29.83,5.0,WNW,6.9,16.1,N/A,Rain,Light Rain,300,2013-10-07 22:15:00
6:35 PM,50.2,46.8,88,29.84,10.0,WNW,6.9,-,N/A,,Overcast,290,2013-10-07 22:35:00
6:56 PM,50.2,45.0,82,29.86,10.0,WNW,9.2,-,N/A,,Overcast,290,2013-10-07 22:56:00
7:15 PM,50.2,44.1,79,29.87,10.0,West,6.9,17.3,N/A,,Mostly Cloudy,280,2013-10-07 23:15:00
7:35 PM,50.2,44.8,82,29.89,10.0,WNW,12.7,20.7,N/A,Rain,Light Rain,300,2013-10-07 23:35:00
7:56 PM,49.1,45.9,89,29.90,10.0,WNW,9.2,-,N/A,,Overcast,290,2013-10-07 23:56:00
8:15 PM,49.1,45.0,86,29.91,10.0,WNW,11.5,16.1,N/A,,Mostly Cloudy,290,2013-10-08 00:15:00
8:35 PM,50.0,44.8,82,29.92,10.0,WNW,6.9,16.1,N/A,,Mostly Cloudy,290,2013-10-08 00:35:00
8:55 PM,50.0,44.2,81,29.94,10.0,WNW,6.9,-,N/A,,Mostly Cloudy,290,2013-10-08 00:55:00
9:15 PM,49.1,43.7,82,29.94,10.0,WNW,8.1,-,N/A,,Scattered Clouds,300,2013-10-08 01:15:00
9:35 PM,49.1,43.7,82,29.96,10.0,West,5.8,-,N/A,,Scattered Clouds,280,2013-10-08 01:35:00
9:55 PM,48.7,43.7,83,29.97,10.0,WNW,5.8,-,N/A,,Scattered Clouds,300,2013-10-08 01:55:00
10:16 PM,49.1,43.7,82,29.98,10.0,West,6.9,-,N/A,,Mostly Cloudy,280,2013-10-08 02:16:00
10:35 PM,49.3,43.7,81,29.98,10.0,WNW,6.9,-,N/A,,Mostly Cloudy,290,2013-10-08 02:35:00
10:55 PM,49.3,43.2,79,29.99,10.0,West,5.8,-,N/A,,Overcast,280,2013-10-08 02:55:00
11:16 PM,48.9,43.0,80,30.00,10.0,WNW,4.6,-,N/A,,Mostly Cloudy,290,2013-10-08 03:16:00
11:35 PM,48.4,43.0,82,30.00,10.0,WNW,4.6,-,N/A,,Scattered Clouds,290,2013-10-08 03:35:00
11:55 PM,48.4,42.8,81,30.01,10.0,WNW,6.9,-,N/A,,Clear,290,2013-10-08 03:55:00